EW3823 Pont-saint-esprit FR current weather conditions

sailwx.info

Wind from 195

Air temperature 11.1° C
Dewpoint -43.2° C

Last reported at 2019-Dec-14 15:44 UTC.
Time now 2019-Dec-14 16:41 UTC

Location: N 44°17' E 004°34'.
View on Google Maps.

See reports from other nearby stations

  
Tides and Currents Weather Stations Pressure Air Temp Water Temp Dewpoint Dewpoint Depression Visibility Wind Speed Wind Dir Waves Ship Positions
date/time (UTC)wind fromknots sea level pressurealtimeterstation pressurevisibilityair tempwater tempwave heightnotes
2019-Dec-14 15:44 195 11.1
2019-Dec-14 15:34 195 11.1
2019-Dec-14 15:14 099 11.7
2019-Dec-14 15:04 099 11.7
2019-Dec-14 14:24 099 11.7
2019-Dec-14 14:14 100 11.7
2019-Dec-14 13:34 333 11.1
2019-Dec-14 13:14 061 10.6
2019-Dec-14 12:54 043 10.6
2019-Dec-14 12:44 055 10.6
2019-Dec-14 12:14 105 0 gusting 1 10.6
2019-Dec-14 11:44 095 0 gusting 3 10.0
2019-Dec-14 11:34 086 1 gusting 2 10.6
2019-Dec-14 11:24 119 1 gusting 3 9.4
2019-Dec-14 11:14 114 1 gusting 3 9.4
2019-Dec-14 10:54 086 0 gusting 3 8.9
2019-Dec-14 10:44 105 1 gusting 3 8.9
2019-Dec-14 10:34 086 0 gusting 2 8.9
2019-Dec-14 10:14 118 8.3
2019-Dec-14 09:44 352 7.8
2019-Dec-14 09:24 350 7.8
2019-Dec-14 09:04 348 6.7
2019-Dec-14 08:44 348 7.2
2019-Dec-14 08:34 345 6.7
2019-Dec-14 08:24 223 6.7
2019-Dec-14 08:14 228 5.6
2019-Dec-14 08:04 228 5.6
2019-Dec-14 07:55 228 5.6
2019-Dec-14 07:44 229 5.6
2019-Dec-14 07:35 229 5.6
2019-Dec-14 07:24 305 0 gusting 1 5.0
2019-Dec-14 07:15 278 0 gusting 2 4.4
2019-Dec-14 07:04 278 0 gusting 2 4.4
2019-Dec-14 06:54 321 0 gusting 1 5.0
2019-Dec-14 06:44 321 0 gusting 1 5.0
2019-Dec-14 06:15 284 5.0
2019-Dec-14 06:04 290 4.4
2019-Dec-14 05:54 290 4.4
2019-Dec-14 05:44 290 4.4
2019-Dec-14 05:24 290 4.4
2019-Dec-14 04:44 269 5.0
2019-Dec-14 04:25 269 5.0
2019-Dec-14 04:14 269 5.0
2019-Dec-14 04:04 269 5.0
2019-Dec-14 03:54 269 5.6
2019-Dec-14 03:45 269 5.6
2019-Dec-14 03:34 269 5.6
2019-Dec-14 02:54 271 6.1
2019-Dec-14 02:35 276 6.1
2019-Dec-14 02:24 276 6.1
2019-Dec-14 01:54 276 6.1
2019-Dec-14 01:34 276 6.1
2019-Dec-14 01:24 276 6.7
2019-Dec-14 01:14 276 6.7
2019-Dec-14 01:04 290 6.7
2019-Dec-14 00:54 290 6.7
2019-Dec-14 00:44 285 6.7
2019-Dec-14 00:34 221 6.7
2019-Dec-14 00:24 220 6.7
2019-Dec-14 00:05 220 6.7
2019-Dec-13 23:54 220 6.7
2019-Dec-13 23:24 222 6.7
2019-Dec-13 23:04 300 7.2
2019-Dec-13 22:34 300 6.7
2019-Dec-13 22:14 300 6.7
2019-Dec-13 22:04 300 6.7
2019-Dec-13 21:44 283 7.2
2019-Dec-13 21:34 274 7.2
2019-Dec-13 21:24 326 7.2
2019-Dec-13 21:14 327 7.2
2019-Dec-13 20:54 057 7.2
2019-Dec-13 20:44 317 7.2
2019-Dec-13 20:34 314 7.8
2019-Dec-13 20:24 316 0 gusting 2 7.8
2019-Dec-13 20:14 010 7.8
2019-Dec-13 20:04 013 7.8
2019-Dec-13 19:54 013 7.8
2019-Dec-13 19:44 017 7.8
2019-Dec-13 19:24 342 0 gusting 2 8.3
2019-Dec-13 19:14 318 8.3
2019-Dec-13 18:54 308 0 gusting 2 8.9
2019-Dec-13 18:24 338 8.9
2019-Dec-13 18:04 027 0 gusting 4 9.4
2019-Dec-13 17:44 316 1 gusting 4 10.0
2019-Dec-13 17:34 311 0 gusting 5 10.0
2019-Dec-13 17:24 262 0 gusting 5 10.0
2019-Dec-13 17:14 299 9.4
2019-Dec-13 17:04 325 0 gusting 1 9.4
2019-Dec-13 16:54 304 0 gusting 3 9.4
2019-Dec-13 16:34 319 0 gusting 1 9.4
2019-Dec-13 16:24 016 1 gusting 4 9.4
2019-Dec-13 16:14 230 0 gusting 2 9.4
2019-Dec-13 16:04 304 0 gusting 1 10.6
2019-Dec-13 15:54 015 10.6
2019-Dec-13 15:34 336 1 gusting 6 11.1
2019-Dec-13 14:34 260 4 gusting 13 12.2
2019-Dec-13 13:44 260 3 gusting 7 12.2
2019-Dec-13 13:34 298 4 gusting 11 12.2
2019-Dec-13 13:14 309 2 gusting 9 11.7
2019-Dec-13 13:04 328 3 gusting 8 11.1
2019-Dec-13 12:44 282 1 gusting 10 11.1
2019-Dec-13 12:34 274 2 gusting 7 10.6
2019-Dec-13 12:24 269 3 gusting 13 10.6
2019-Dec-13 12:04 337 3 gusting 8 10.0
2019-Dec-13 11:34 272 4 gusting 12 10.6
2019-Dec-13 11:24 321 2 gusting 6 10.6
2019-Dec-13 10:54 250 10.0
2019-Dec-13 10:34 105 0 gusting 2 10.0
2019-Dec-13 10:24 229 9.4
2019-Dec-13 10:14 207 8.9
2019-Dec-13 10:04 196 8.9
2019-Dec-13 09:54 198 8.3
2019-Dec-13 09:34 307 1 gusting 6 7.2
2019-Dec-13 09:24 272 0 gusting 2 7.2
2019-Dec-13 09:04 314 1 gusting 5 6.7
2019-Dec-13 08:14 304 5.6
2019-Dec-13 08:04 264 5.6
2019-Dec-13 07:54 264 5.6
2019-Dec-13 07:44 155 5.6
2019-Dec-13 06:54 210 5.6
2019-Dec-13 06:44 333 1 gusting 3 5.6
2019-Dec-13 06:34 315 0 gusting 2 5.0
2019-Dec-13 06:14 329 5.0
2019-Dec-13 05:44 092 5.0
2019-Dec-13 05:34 094 0 gusting 1 5.0
2019-Dec-13 04:54 100 5.0
2019-Dec-13 04:44 100 5.0
2019-Dec-13 04:34 077 5.0
2019-Dec-13 04:24 060 5.0
2019-Dec-13 04:14 110 5.0
2019-Dec-13 04:04 110 5.0
2019-Dec-13 03:54 110 5.0
2019-Dec-13 03:34 110 5.0
2019-Dec-13 03:04 194 5.0
2019-Dec-13 02:54 172 5.0
2019-Dec-13 02:44 172 5.0
2019-Dec-13 02:34 172 5.0
2019-Dec-13 02:24 172 5.0
2019-Dec-13 02:14 172 5.0
2019-Dec-13 01:54 172 5.0
2019-Dec-13 01:44 172 5.0
2019-Dec-13 01:34 172 5.0
2019-Dec-13 01:24 162 5.0
2019-Dec-13 01:14 162 5.0
2019-Dec-13 01:04 233 5.6
2019-Dec-13 00:55 233 5.6
2019-Dec-13 00:44 233 5.6
2019-Dec-13 00:04 016 5.0
2019-Dec-12 23:55 016 5.0
2019-Dec-12 23:44 027 4.4
2019-Dec-12 23:34 027 4.4
2019-Dec-12 23:24 028 4.4
2019-Dec-12 23:14 023 4.4
2019-Dec-12 23:04 023 5.0
2019-Dec-12 22:54 081 5.0
2019-Dec-12 22:34 081 5.0
2019-Dec-12 22:04 096 5.0
2019-Dec-12 21:54 119 5.0
2019-Dec-12 21:45 119 5.0
2019-Dec-12 21:24 119 5.0
2019-Dec-12 21:14 119 5.0
2019-Dec-12 20:54 122 5.0
2019-Dec-12 20:44 129 5.0
2019-Dec-12 20:24 214 5.0
2019-Dec-12 20:14 181 5.0
2019-Dec-12 20:04 238 5.0
2019-Dec-12 19:54 214 5.0
2019-Dec-12 19:44 039 5.0
2019-Dec-12 19:34 079 5.6
2019-Dec-12 19:14 112 0 gusting 2 6.1
2019-Dec-12 19:04 105 0 gusting 6 6.1
2019-Dec-12 18:54 131 0 gusting 2 6.1
2019-Dec-12 18:24 049 5.6
2019-Dec-12 17:34 098 6.1
2019-Dec-12 17:14 175 6.1
2019-Dec-12 17:04 102 6.1
2019-Dec-12 16:44 145 6.1
2019-Dec-12 16:34 218 6.1
2019-Dec-12 16:04 097 6.7